DW9672 Weather Reports


Display with metric or nautical units.
time (UTC)temp
F
wind
direction
speed
MPH
gust
MPH
rain 1hr
in
rain 24hr
in
rain mn
in
humidity
%
barometer
mb
20260831024600 74 117 0.0 0.0 0.00 0.00 0.00 95 1016.3
20260831023055 74 116 0.0 0.0 0.00 0.00 0.00 96 1016.3
20260831021537 74 116 0.0 0.0 0.00 0.00 0.00 96 1016.1
20260831020037 75 115 0.0 0.0 0.00 0.00 0.00 96 1016.0
20260831014523 75 115 0.0 0.0 0.00 0.00 0.00 95 1015.9
20260831013019 75 115 0.0 0.0 0.00 0.00 0.00 95 1016.2
20260831011507 76 115 0.0 0.0 0.00 0.00 0.00 93 1016.3
20260831010001 76 115 0.0 0.0 0.00 0.00 0.00 93 1016.3
20260831004551 77 115 0.0 0.0 0.00 0.00 0.00 92 1015.8
20260831003051 77 115 0.0 0.0 0.00 0.00 0.00 91 1015.8
20260831001550 78 115 0.0 2.0 0.00 0.00 0.00 91 1015.6
20260831000049 78 165 0.0 3.0 0.00 0.00 0.00 91 1014.7
20260830234546 78 140 0.0 1.0 0.00 0.00 0.00 91 1015.5
20260830233052 79 140 0.0 0.0 0.00 0.00 0.00 90 1016.2
20260830231546 79 26 0.0 0.0 0.00 0.00 0.00 89 1016.3
20260830230046 80 360 0.0 0.0 0.00 0.00 0.00 90 1016.6
20260830224533 80 360 0.0 0.0 0.00 0.00 0.00 90 1016.6
20260830223033 80 360 0.0 0.0 0.00 0.00 0.00 89 1016.5
20260830221535 80 360 0.0 0.0 0.00 0.00 0.00 89 1016.4
20260830220033 80 360 0.0 2.0 0.00 0.00 0.00 89 1016.3
20260830214530 80 234 0.0 0.0 0.00 0.00 0.00 88 1016.0
20260830213030 80 233 0.0 2.0 0.00 0.00 0.00 87 1015.5
20260830211529 81 233 0.0 0.0 0.00 0.00 0.00 85 1015.7
20260830210030 82 233 0.0 0.0 0.00 0.00 0.00 83 1015.8
20260830204515 81 233 0.0 1.0 0.00 0.00 0.00 81 1016.3
20260830203014 81 240 0.0 2.0 0.00 0.00 0.00 82 1016.5
20260830201511 81 313 0.0 0.0 0.00 0.00 0.00 81 1016.7
20260830200013 80 296 0.0 2.0 0.00 0.00 0.00 82 1016.7
20260830194509 80 264 0.0 4.0 0.00 0.00 0.00 82 1016.1
20260830193005 79 185 0.0 4.0 0.00 0.00 0.00 83 1016.1
20260830191502 78 207 1.0 5.0 0.00 0.00 0.00 84 1016.0
20260830190101 77 143 0.0 3.0 0.00 0.00 0.00 86 1016.1
20260830184544 76 214 0.0 5.0 0.00 0.00 0.00 86 1016.3
20260830183044 76 223 1.0 4.0 0.00 0.00 0.00 85 1016.1
20260830181521 76 227 1.0 6.0 0.00 0.00 0.00 85 1016.1
20260830180031 76 209 3.0 6.0 0.00 0.00 0.00 86 1015.9
20260830174615 75 153 0.0 7.0 0.00 0.00 0.00 86 1016.0
20260830173101 75 167 1.0 8.0 0.00 0.00 0.00 87 1016.4
20260830171542 74 196 1.0 6.0 0.00 0.00 0.00 88 1016.6
20260830170036 73 222 1.0 8.0 0.00 0.00 0.00 89 1016.8
20260830164522 72 192 1.0 6.0 0.00 0.00 0.00 91 1017.0
20260830163036 72 159 0.0 6.0 0.00 0.00 0.00 92 1017.4
20260830161520 72 178 0.0 4.0 0.00 0.00 0.00 92 1017.6
20260830160037 72 209 2.0 6.0 0.00 0.00 0.00 92 1017.7
20260830154517 71 205 0.0 1.0 0.00 0.00 0.00 94 1017.8
20260830153016 70 201 0.0 4.0 0.00 0.00 0.00 94 1017.6
20260830151514 70 220 0.0 1.0 0.00 0.00 0.00 94 1017.2
20260830150017 69 175 0.0 2.0 0.00 0.00 0.00 94 1017.0
20260830144604 69 202 0.0 2.0 0.00 0.00 0.00 94 1016.8
20260830143057 69 173 0.0 3.0 0.00 0.00 0.00 95 1016.8
20260830141541 69 203 0.0 4.0 0.00 0.00 0.00 96 1016.9
20260830140044 68 224 0.0 0.0 0.00 0.00 0.00 96 1017.0
20260830134533 68 254 0.0 0.0 0.00 0.00 0.00 96 1017.3
20260830133023 68 291 0.0 0.0 0.00 0.00 0.00 96 1017.4
20260830131502 68 291 0.0 1.0 0.00 0.00 0.00 95 1018.1
20260830130002 69 360 0.0 0.0 0.00 0.00 0.00 95 1018.2
20260830124546 69 101 0.0 0.0 0.00 0.00 0.00 94 1018.2
20260830123049 0 0.0 0.0 0.00 0.00 0.00 1018.2
20260830121535 0 0.0 0.0 0.00 0.00 0.00 1018.2
20260830120016 69 103 0.0 2.0 0.00 0.00 0.00 91 1017.6
20260830114612 69 179 0.0 0.0 0.00 0.00 0.00 90 1017.0
20260830113059 69 179 0.0 0.0 0.00 0.00 0.00 90 1016.5
20260830111544 69 179 0.0 1.0 0.00 0.00 0.00 90 1016.2
20260830110041 69 178 0.0 1.0 0.00 0.00 0.00 90 1016.1
20260830104524 69 178 0.0 0.0 0.00 0.00 0.00 90 1016.0
20260830103026 69 179 0.0 2.0 0.00 0.00 0.00 89 1016.1
20260830101505 69 178 0.0 1.0 0.00 0.00 0.00 89 1016.0
20260830100004 69 181 0.0 1.0 0.00 0.00 0.00 89 1016.0
20260830094547 69 187 0.0 1.0 0.00 0.00 0.00 89 1016.1
20260830093047 69 188 0.0 2.0 0.00 0.00 0.00 89 1016.1
20260830091533 69 184 0.0 3.0 0.00 0.00 0.00 89 1016.1
20260830090034 69 198 0.0 4.0 0.00 0.00 0.00 89 1016.1
20260830084509 69 194 0.0 3.0 0.00 0.00 0.00 89 1016.0
20260830083010 69 190 0.0 3.0 0.00 0.00 0.00 88 1016.1
20260830081557 69 219 0.0 5.0 0.00 0.00 0.00 88 1016.2
20260830080056 69 135 0.0 4.0 0.00 0.00 0.00 87 1016.3
20260830074601 69 178 0.0 4.0 0.00 0.00 0.00 87 1016.3
20260830073054 69 192 1.0 7.0 0.00 0.00 0.00 86 1016.3
20260830071555 69 192 1.0 4.0 0.00 0.00 0.00 86 1016.5
20260830070050 69 215 1.0 5.0 0.00 0.00 0.00 86 1016.7
20260830064550 69 168 2.0 7.0 0.00 0.00 0.00 86 1016.8
20260830063103 69 209 1.0 5.0 0.00 0.00 0.00 86 1017.0
20260830061557 69 196 1.0 4.0 0.00 0.00 0.00 86 1017.0
20260830060029 69 175 1.0 5.0 0.00 0.00 0.00 86 1017.1
20260830054530 69 145 1.0 7.0 0.00 0.00 0.00 86 1017.2
20260830053009 70 198 1.0 6.0 0.00 0.00 0.00 86 1017.3
20260830051520 70 202 2.0 6.0 0.00 0.00 0.00 87 1017.3
20260830050050 70 163 2.0 7.0 0.00 0.00 0.00 87 1017.3
20260830044601 70 143 1.0 7.0 0.00 0.00 0.00 87 1017.5
20260830043032 70 194 1.0 6.0 0.00 0.00 0.00 87 1017.5
20260830041529 70 194 0.0 3.0 0.00 0.00 0.00 87 1017.4
20260830040009 71 247 0.0 4.0 0.00 0.00 0.00 86 1017.6
20260830034508 71 205 0.0 4.0 0.00 0.00 0.00 86 1017.6
20260830033050 71 202 0.0 2.0 0.00 0.00 0.00 86 1017.6
20260830031550 72 176 1.0 6.0 0.00 0.00 0.00 85 1017.8
20260830030039 72 213 1.0 5.0 0.00 0.00 0.00 85 1017.6